ONEWEB-0634, 56075

Orbit data source: Space-Track

ONEWEB-0634, 56075 is a payload satellite owned by One Web (NAA) (UK) in LEO that was launched on Sun, 26 Mar 2023 UTC via a LVM3 launch vehicle from the Sirharikota (SRI). Payloads include a variety of satellites, spacecraft, and rockets equipped with specific instruments for various scientific and technological missions. These include communications satellites like Starlink; space stations such as the ISS; scientific satellites like the Hubble; Earth observation satellites from companies like Planet Labs, Umbra, and HawkEye 360; GPS; miniature CubeSats for education and research; and military/defense satellites.

Loading next visibility...
ONEWEB-0634 details
Identifier
56075, 2023-043AF
Orbit
LEO
Last TLE update14 hours ago
Origin
Flag of UKOne Web (NAA) (UK)
ManufacturerOne Web
MissionOperational Commercial Communications
Bus & MotorARROW, Unknown motor
Mass148 kg wet, ~140 kg dry
Launch date (UTC)
2023-03-26 (2 years ago)
Launch vehicle
LVM3
Launch site
Sirharikota (SRI)
Object type
Payload
Rocket body
Debris
Shape & HBRTrap Box + 2 Pan, 5 m
Radar Cross Section2.032 m², Medium (>0.1 m² and < 1m²)

Expand to show TLE details & history

TLE from 14 hours ago
0 ONEWEB-0634
1 56075U 23043AF  25015.04636887 -.00000069  00000-0 -21684-3 0  9991
2 56075  87.9082   2.3875 0002122  92.1344 268.0029 13.15546131 89187
Epoch: 2025-01-15T01:06Z
Definitive object data (Epoch: 2025-01-15T01:06:46.27Z)
Latitude-0.00005°
Longitude-129.04963°
Altitude1,204.732 km
Speed7.252 km/s
True Right ascension00h 09m 32s
True Declination0° 00' 00"
Sunlit
Object was in daylight at TLE epoch
Visualization TLE readout
Latitude-5.57355°
Longitude51.04012°
Altitude1,205.707 km
Speed7.251 km/s
Apparent Right ascension09h 28m 03s
Apparent Declination-39° 38' 54"
Sunlit
Object is in daylight
Visualization observer readout
Local Sidereal Time15:30:33
Azimuth237.845° WSW
Elevation-24.573°
Doppler factor1
Orbital elements
Apogee altitude1,200.5 km
Perigee altitude1,197.284 km
Semi-major axis7,577.029 km
Eccentricity0.0002122
Inclination87.9082°
RAAN2.3875°
Arg. of periapsis92.1344°
True anomaly267.9786°
Mean anomaly268.0029°
Eccentric anomaly267.99075°
Mean motion3.29075 °/min
BSTAR-0.00021684
Orbital period109.4 mins
Loading maneuver chart data...
Loading historical data...
Loading historical data...
Loading historical data...
Loading historical data...
Loading historical data...
Loading historical data...
Loading historical data...

ONEWEB-0634 Visibility forecast

Observer location: undefined°, undefined

Span
Click to sort rows by Start time (UTC) header in descending order
Start Az.
Max El. time (UTC)
Max El. Az.
Max El.
End time (UTC)
End Az.
13 mins2025-01-15 23:06:47.729Z165.158° S2025-01-15 23:12:47.729Z105.188° ESE42.197°2025-01-15 23:19:47.729Z7.082° NNE
8 mins2025-01-16 00:59:47.729Z249.099° W2025-01-16 01:03:47.729Z289.674° WNW20.012°2025-01-16 01:07:47.729Z326.622° NNW
12 mins2025-01-16 10:34:47.729Z13.062° NNE2025-01-16 10:40:47.729Z88.514° E37.82°2025-01-16 10:46:47.729Z157.049° SSE
9 mins2025-01-16 12:25:47.729Z326.144° NNW2025-01-16 12:29:47.729Z282.265° WNW25.313°2025-01-16 12:34:47.729Z232.019° WSW
|